Wind_Speed
23 23 23 24 24 23 22 23 23 24 24 24 24 23 23 24 24 24 24 25 25 25 25 25 25 25 24 23 23 23 22 22 22 21 22 23 23 23 25 27 29 29 29
23 22 22 22 22 21 21 22 22 23 24 24 24 23 23 24 23 23 24 25 24 24 24 24 24 23 23 22 21 21 21 21 21 20 20 21 21 21 22 23 25 27 27
21 21 21 20 21 20 19 20 20 21 22 22 22 22 22 23 22 23 24 24 24 24 23 23 23 23 22 21 20 20 20 20 19 18 18 19 20 21 21 22 23 24 26
20 19 19 19 19 18 18 19 19 20 21 22 22 21 22 22 22 23 24 24 23 23 23 23 23 22 22 20 20 19 19 19 18 17 17 17 18 20 20 21 22 24 25
18 18 17 18 18 18 18 18 19 20 21 22 21 22 22 22 22 23 23 23 23 23 22 22 22 21 20 19 18 18 18 17 17 17 17 17 17 18 18 19 21 22 22
17 17 17 18 18 18 17 18 18 19 20 21 21 22 22 22 21 22 23 23 23 22 21 21 21 20 19 18 17 17 17 17 17 17 17 17 17 17 18 18 20 21 21
16 16 16 17 17 17 17 17 17 18 19 20 21 21 22 22 21 22 22 22 22 22 21 21 20 20 19 18 18 18 19 19 18 18 18 17 17 17 18 18 19 20 21
14 14 16 16 16 16 17 17 17 17 18 19 20 20 20 21 22 21 22 22 21 21 20 20 20 19 18 19 19 19 19 19 19 18 18 18 17 17 18 18 19 19 20
13 13 14 15 15 16 16 17 17 17 18 18 18 19 20 21 22 22 22 22 22 21 20 20 19 18 18 18 18 18 17 17 18 17 17 17 17 17 18 18 19 19 19
13 13 14 14 15 15 15 16 15 16 16 17 17 19 20 20 21 22 22 21 21 21 20 19 19 18 17 17 17 17 17 17 18 18 18 17 16 16 17 17 18 18 18
12 12 12 14 14 14 14 15 15 15 16 16 17 18 19 20 21 21 22 21 21 21 20 19 19 19 18 18 18 17 17 17 18 18 18 18 17 17 17 17 17 18 19
10 12 13 14 14 13 14 14 15 15 15 16 17 17 18 20 21 21 21 21 21 20 20 19 19 19 19 19 18 17 17 18 18 18 19 19 19 18 18 19 19 19 20
10 12 12 13 13 13 14 14 14 15 15 16 16 17 18 19 20 21 21 21 21 21 20 20 20 20 19 19 19 19 19 19 19 19 19 19 19 20 20 20 21 21 21
11 12 12 12 13 13 13 14 14 15 15 15 16 17 18 20 21 21 22 22 22 22 21 21 20 20 20 20 20 20 19 19 20 20 20 19 19 20 21 21 21 22 22
10 11 12 12 12 12 13 14 14 15 15 16 17 18 19 21 22 23 23 24 24 23 23 22 21 22 22 21 22 21 21 21 20 21 20 20 20 20 20 21 22 22 22
10 11 12 12 12 13 14 14 15 15 16 17 18 19 20 21 22 23 24 24 24 24 23 23 22 22 22 22 21 21 21 21 21 21 20 20 20 21 21 21 22 22 23
10 11 12 13 13 14 14 15 16 17 18 20 20 21 22 22 23 24 24 25 25 24 24 23 23 23 23 22 22 21 21 21 21 21 21 21 21 21 22 22 23 23 23
10 10 11 13 14 14 15 16 17 18 19 21 21 22 23 23 24 25 25 25 25 25 24 25 25 24 23 23 22 22 22 22 22 22 22 22 23 23 22 23 23 23 23
11 11 12 13 14 15 16 17 18 19 20 21 22 23 24 24 25 26 27 27 26 26 26 26 26 25 24 24 24 23 23 23 22 22 22 22 22 23 23 24 24 24 24
11 11 13 13 15 16 16 17 18 20 21 21 23 24 25 26 27 28 28 28 27 27 26 26 26 25 25 25 24 23 23 23 22 22 21 21 22 22 23 23 24 24 24
11 12 13 14 15 16 17 18 19 21 22 22 24 25 27 27 28 29 29 28 28 27 27 26 26 27 26 25 25 24 23 23 22 21 21 21 22 22 22 23 23 23 24
12 13 14 15 16 17 18 19 20 22 23 24 25 27 28 29 30 30 30 29 28 28 27 26 27 27 26 25 25 24 23 23 22 22 22 22 21 21 22 23 23 24 23
12 13 14 15 17 18 19 20 22 24 24 25 27 28 30 31 31 31 30 29 29 28 28 28 28 28 27 26 25 24 24 24 23 23 23 22 22 22 23 23 23 23 24
12 14 15 17 18 19 21 22 24 25 26 27 29 30 31 32 32 31 31 31 30 29 29 29 30 29 28 26 24 23 23 23 23 23 23 23 22 22 22 22 22 23 23
13 15 16 17 19 20 22 23 25 27 28 29 30 31 32 32 32 31 31 31 30 30 30 30 30 28 28 27 25 24 24 24 24 24 23 23 22 22 22 22 22 23 23
13 15 16 18 20 21 23 25 26 28 29 30 31 32 32 32 32 32 31 31 31 30 30 30 29 29 29 27 26 26 25 25 24 24 23 23 23 22 22 22 21 22 22
Wind_Direction
283 283 284 287 289 288 290 291 293 294 295 296 297 299 299 299 300 302 304 307 307 306 306 305 304 303 301 300 298 295 290 286 281 276 271 266 262 260 257 254 251 250 249
283 283 284 286 288 288 291 293 295 297 298 298 298 298 298 299 301 304 305 306 306 306 305 304 303 303 303 302 300 296 293 289 285 280 274 267 264 261 257 255 252 250 250
284 284 285 286 288 289 291 294 294 298 300 301 300 300 301 302 303 304 305 305 305 305 305 304 303 303 303 301 298 296 292 289 286 282 278 270 264 261 259 256 253 250 250
286 285 286 285 288 289 291 293 295 300 302 303 302 302 303 305 305 306 306 305 305 305 305 304 304 303 302 301 299 297 294 291 286 282 278 273 267 263 261 256 252 250 250
288 286 286 286 287 288 291 293 297 302 304 305 306 306 306 306 306 308 308 307 307 307 307 306 305 305 304 304 300 297 295 294 289 281 279 274 270 267 266 258 253 252 252
292 291 290 289 289 289 292 294 297 301 304 306 309 308 309 309 309 310 309 309 308 308 306 307 306 305 303 302 299 297 296 294 291 287 282 275 271 266 265 261 257 255 253
293 294 293 292 293 294 295 299 300 302 306 309 310 311 312 313 313 313 311 310 309 309 306 306 306 305 303 301 298 296 296 295 292 290 285 280 277 269 265 263 261 257 254
297 296 300 298 297 297 300 302 305 305 309 312 313 314 316 316 315 314 313 311 309 309 308 306 306 304 301 300 295 294 294 296 295 290 286 282 278 274 270 266 262 259 257
304 305 305 305 304 302 304 307 308 308 310 313 317 318 319 318 316 315 313 312 311 311 307 306 305 304 302 300 298 296 296 296 296 291 287 285 281 274 270 266 262 259 257
308 310 312 313 312 309 306 309 313 314 315 316 322 323 322 321 320 320 317 316 314 314 311 308 306 305 304 301 299 298 296 295 295 293 287 284 280 275 271 268 265 261 257
315 319 319 322 322 316 313 314 315 317 319 320 322 325 325 325 326 326 325 322 319 316 312 309 308 306 306 304 301 298 295 295 294 291 287 285 279 276 272 268 267 263 260
320 322 323 325 327 326 323 322 323 324 325 326 325 326 328 329 330 330 329 327 323 319 317 316 313 311 309 307 304 302 300 297 295 292 289 286 280 277 274 273 271 265 262
328 329 329 330 332 331 330 332 333 335 335 332 331 329 329 330 332 333 332 330 328 325 322 319 315 313 312 311 308 303 300 298 295 292 290 288 281 277 275 274 273 268 264
333 335 338 337 337 336 338 338 339 340 341 338 336 332 329 329 330 332 332 330 329 327 325 323 320 317 313 311 310 307 301 296 293 291 289 285 281 281 279 276 274 271 266
343 343 345 343 342 342 342 343 344 343 342 340 337 335 334 334 333 332 333 332 330 327 324 322 320 318 316 312 311 308 304 299 294 293 289 286 284 285 285 281 277 273 270
344 346 347 347 344 343 343 344 347 348 345 341 340 339 338 338 338 336 333 333 331 328 325 323 321 317 316 315 312 309 306 302 298 294 291 286 284 284 284 283 280 276 273
343 346 346 346 345 344 345 346 346 345 344 342 341 340 339 338 338 336 334 332 331 329 326 324 322 318 316 316 314 310 307 304 300 295 292 289 286 285 285 284 282 277 274
351 350 348 347 346 346 346 346 345 345 344 343 342 341 340 338 337 336 334 333 331 329 327 324 322 319 317 316 314 311 306 302 299 296 292 289 287 285 285 285 281 276 273
353 354 352 350 349 348 347 346 345 345 345 344 343 343 343 341 339 336 335 334 333 330 327 325 323 321 319 317 313 310 308 304 301 297 293 291 288 285 285 284 282 278 274
359 358 356 355 353 351 349 348 348 347 346 345 345 345 344 342 341 339 338 336 335 332 329 327 325 323 321 320 317 313 311 308 304 299 296 293 290 288 287 286 284 281 278
2 359 357 356 354 351 350 349 349 349 348 347 346 346 344 343 342 341 340 338 335 334 332 330 328 325 323 321 319 316 312 309 306 302 300 297 294 292 290 287 285 282 278
1 0 359 358 356 355 353 352 350 349 348 346 346 345 344 343 342 341 340 337 335 334 333 332 330 328 326 324 320 316 313 311 309 306 304 300 297 295 293 289 285 282 279
2 0 359 358 356 355 352 351 349 348 346 346 346 345 344 344 343 341 340 339 336 334 333 332 330 328 326 324 321 318 315 312 310 308 306 305 302 297 294 291 288 284 280
2 1 359 358 356 355 353 351 349 348 347 347 346 345 345 344 343 342 341 340 338 337 336 335 333 332 330 328 324 321 319 317 313 310 309 307 305 301 296 293 289 286 282
1 359 358 357 355 354 352 350 349 349 348 347 345 344 344 344 344 343 342 341 340 339 338 337 336 336 334 331 328 327 326 323 319 316 313 310 307 304 300 296 292 288 285
358 357 356 355 354 352 351 351 351 350 349 347 347 346 345 345 345 345 344 343 342 341 339 339 339 338 337 335 332 331 330 327 324 320 317 314 311 307 303 299 296 293 289
Height
5776 5775 5773 5772 5770 5768 5767 5765 5763 5760 5757 5754 5751 5748 5746 5743 5739 5736 5732 5728 5724 5720 5717 5713 5709 5706 5702 5699 5696 5693 5691 5689 5688 5687 5686 5686 5686 5687 5688 5689 5691 5693 5695
5770 5769 5768 5766 5764 5763 5761 5759 5757 5754 5752 5748 5745 5743 5740 5737 5733 5730 5726 5722 5718 5715 5711 5707 5703 5700 5697 5693 5690 5688 5686 5684 5682 5681 5680 5680 5680 5680 5681 5682 5684 5685 5687
5764 5763 5762 5760 5759 5758 5756 5754 5752 5749 5746 5743 5740 5737 5734 5730 5727 5723 5720 5716 5712 5709 5705 5701 5698 5694 5691 5688 5685 5683 5681 5679 5677 5676 5675 5674 5674 5674 5675 5676 5677 5679 5680
5758 5758 5757 5755 5754 5753 5751 5749 5747 5744 5741 5738 5735 5732 5728 5724 5721 5717 5714 5710 5706 5703 5699 5696 5693 5689 5686 5683 5680 5678 5676 5674 5672 5671 5670 5669 5669 5669 5669 5670 5671 5672 5673
5753 5752 5751 5750 5749 5748 5746 5745 5742 5740 5737 5733 5730 5726 5722 5718 5715 5711 5708 5704 5701 5697 5694 5691 5687 5684 5681 5678 5676 5673 5671 5669 5668 5666 5665 5664 5664 5664 5664 5664 5665 5665 5666
5749 5747 5746 5745 5744 5743 5742 5740 5738 5735 5732 5728 5725 5721 5717 5713 5709 5706 5702 5699 5695 5692 5689 5685 5682 5679 5676 5674 5671 5669 5667 5665 5663 5662 5660 5659 5659 5659 5658 5658 5659 5659 5660
5744 5743 5742 5740 5739 5738 5737 5735 5733 5730 5727 5723 5720 5716 5712 5708 5705 5701 5697 5693 5690 5687 5684 5680 5677 5674 5671 5669 5666 5664 5662 5660 5658 5657 5655 5654 5654 5653 5653 5653 5652 5653 5654
5740 5739 5738 5736 5734 5733 5731 5730 5728 5725 5722 5719 5715 5712 5707 5704 5700 5696 5692 5689 5685 5682 5678 5675 5672 5669 5666 5664 5662 5659 5657 5655 5653 5651 5650 5649 5648 5648 5647 5647 5647 5647 5648
5737 5735 5734 5732 5730 5728 5727 5725 5723 5721 5718 5714 5711 5707 5703 5699 5695 5692 5688 5684 5681 5677 5673 5670 5667 5665 5662 5659 5657 5654 5652 5650 5648 5646 5645 5644 5643 5642 5642 5641 5641 5641 5642
5733 5732 5730 5728 5726 5724 5723 5721 5719 5716 5713 5710 5707 5703 5699 5696 5692 5687 5683 5679 5676 5672 5669 5666 5663 5660 5657 5654 5651 5649 5647 5645 5643 5641 5640 5638 5637 5636 5636 5635 5635 5636 5636
5730 5729 5727 5725 5723 5721 5719 5717 5715 5712 5709 5706 5703 5700 5696 5692 5688 5683 5679 5675 5671 5667 5664 5661 5658 5655 5652 5649 5646 5643 5641 5639 5637 5636 5634 5633 5632 5631 5630 5629 5629 5629 5630
5728 5727 5725 5723 5720 5718 5716 5714 5711 5709 5706 5703 5700 5696 5692 5688 5684 5680 5676 5671 5667 5663 5659 5656 5653 5650 5646 5643 5640 5638 5635 5633 5631 5630 5629 5627 5626 5625 5624 5624 5623 5623 5623
5727 5725 5723 5721 5718 5716 5714 5711 5709 5706 5703 5699 5696 5693 5689 5685 5681 5677 5672 5668 5663 5659 5655 5651 5648 5645 5641 5638 5635 5632 5630 5628 5626 5624 5623 5621 5620 5619 5618 5617 5616 5615 5615
5725 5723 5721 5719 5716 5714 5712 5709 5706 5703 5700 5697 5694 5690 5686 5682 5677 5673 5668 5664 5660 5655 5651 5647 5643 5640 5636 5633 5630 5627 5624 5622 5620 5618 5616 5615 5614 5613 5611 5610 5610 5609 5608
5724 5722 5720 5717 5715 5713 5710 5707 5704 5701 5698 5695 5691 5687 5683 5679 5674 5670 5665 5660 5655 5651 5646 5642 5638 5634 5631 5627 5624 5621 5618 5615 5613 5611 5609 5608 5607 5605 5604 5603 5602 5601 5601
5724 5721 5719 5717 5714 5712 5709 5706 5702 5699 5696 5692 5688 5684 5680 5675 5671 5666 5662 5657 5651 5647 5642 5637 5633 5629 5625 5622 5618 5615 5612 5609 5606 5604 5602 5601 5599 5598 5597 5596 5595 5594 5593
5723 5721 5718 5716 5713 5710 5707 5704 5701 5698 5694 5690 5686 5681 5677 5672 5667 5663 5658 5653 5647 5642 5637 5632 5628 5624 5620 5616 5612 5609 5605 5603 5600 5597 5595 5593 5592 5591 5589 5588 5587 5586 5586
5722 5720 5717 5715 5712 5709 5706 5703 5700 5696 5692 5687 5683 5679 5674 5669 5664 5659 5653 5648 5643 5637 5632 5627 5623 5618 5614 5610 5606 5602 5599 5596 5593 5590 5588 5586 5584 5583 5581 5580 5579 5578 5577
5721 5719 5717 5714 5711 5708 5705 5701 5698 5694 5689 5685 5680 5676 5671 5666 5660 5655 5649 5644 5638 5633 5627 5622 5617 5612 5608 5604 5600 5596 5592 5589 5586 5583 5580 5578 5576 5575 5573 5572 5571 5570 5569
5721 5718 5716 5713 5710 5707 5703 5700 5696 5692 5687 5683 5678 5673 5667 5662 5656 5651 5645 5639 5633 5627 5622 5617 5612 5606 5602 5597 5593 5589 5585 5582 5579 5576 5573 5571 5569 5567 5565 5564 5562 5561 5560
5721 5718 5715 5712 5709 5706 5702 5698 5694 5690 5685 5681 5675 5670 5664 5658 5653 5646 5640 5634 5628 5622 5617 5611 5606 5601 5595 5591 5586 5582 5578 5575 5572 5569 5566 5564 5561 5559 5557 5555 5554 5553 5551
5720 5718 5715 5712 5708 5705 5701 5696 5692 5688 5683 5678 5673 5667 5661 5655 5648 5642 5636 5630 5623 5618 5612 5606 5601 5595 5590 5585 5580 5576 5572 5568 5565 5562 5559 5556 5553 5551 5549 5547 5546 5544 5543
5720 5717 5714 5711 5707 5703 5699 5695 5690 5686 5681 5675 5670 5664 5657 5651 5645 5638 5631 5625 5619 5613 5607 5601 5595 5590 5584 5579 5574 5570 5566 5562 5559 5555 5552 5549 5546 5544 5541 5539 5537 5535 5534
5719 5716 5713 5710 5706 5702 5698 5693 5689 5684 5678 5673 5667 5660 5654 5647 5641 5634 5627 5621 5614 5608 5602 5596 5590 5584 5578 5573 5568 5563 5559 5555 5552 5548 5545 5542 5538 5536 5533 5531 5529 5527 5525
5718 5715 5712 5709 5705 5701 5696 5692 5687 5681 5676 5670 5664 5657 5651 5644 5637 5630 5623 5616 5610 5603 5597 5591 5585 5579 5573 5567 5562 5558 5553 5549 5545 5541 5538 5534 5531 5528 5525 5522 5520 5518 5517
5717 5714 5711 5708 5704 5700 5695 5690 5685 5679 5673 5667 5660 5654 5647 5640 5633 5626 5619 5612 5606 5599 5593 5587 5580 5574 5568 5563 5557 5552 5548 5543 5539 5535 5531 5527 5524 5520 5517 5514 5512 5510 5508